This demonstration page uses our WeatherBlox Daily Observations layout. Learn more.

Hourly Observations for February 26, 2020

Temp ( °F °C ) Dew Point ( °F °C ) Humidity (%) Winds ( mph kmh ) Pressure ( in mb ) Visibility ( mi km ) Precip ( " mm )
12:15 am 00:15 Cloudy 25 -3.8 19 -7 79 79 NNW 15 24 30.55 1035 10 16.0934 0 0
12:35 am 00:35 Mostly Cloudy 25 -4 19 -7.3 78 78 NNW 15 24 30.56 1035 10 16.0934 0 0
12:55 am 00:55 Clear 24 -4.5 18 -7.6 79 79 NNW 13 20 30.56 1035 10 16.0934 0 0
1:15 am 01:15 Clear 23 -5 18 -7.6 82 82 NNW 13 20 30.57 1035 10 16.0934 0 0
1:35 am 01:35 Clear 22 -5.5 18 -7.7 85 85 NNW 9 15 30.57 1035 10 16.0934 0 0
1:55 am 01:55 Clear 22 -5.7 18 -8 84 84 NW 10 17 30.57 1035 10 16.0934 0 0
2:15 am 02:15 Partly Cloudy 21 -6 17 -8.1 85 85 NW 10 17 30.58 1035 10 16.0934 0 0
2:35 am 02:35 Clear 21 -6.2 17 -8.5 84 84 NW 9 15 30.57 1035 10 16.0934 0 0
2:55 am 02:55 Clear 20 -6.6 16 -8.9 84 84 NW 10 17 30.58 1036 10 16.0934 0 0
3:15 am 03:15 Clear 20 -6.7 16 -8.8 85 85 NW 12 19 30.57 1035 10 16.0934 0 0
3:35 am 03:35 Clear 19 -7 16 -9.1 85 85 NW 10 17 30.58 1035 10 16.0934 0 0
3:55 am 03:55 Clear 19 -7.3 15 -9.5 84 84 NW 12 19 30.58 1036 10 16.0934 0 0
4:15 am 04:15 Clear 19 -7.5 15 -9.5 86 86 NW 10 17 30.58 1036 10 16.0934 0 0
4:35 am 04:35 Clear 18 -7.9 15 -9.7 87 87 NW 9 15 30.59 1036 10 16.0934 0 0
4:55 am 04:55 Clear 18 -7.7 15 -9.6 86 86 NW 8 13 30.58 1036 10 16.0934 0 0
5:15 am 05:15 Clear 18 -8 15 -9.7 88 88 NW 8 13 30.59 1036 10 16.0934 0 0
5:35 am 05:35 Clear 18 -8 14 -9.8 87 87 NW 9 15 30.59 1036 10 16.0934 0 0
5:55 am 05:55 Clear 17 -8.5 14 -10.1 88 88 NW 7 11 30.59 1036 10 16.0934 0 0
6:15 am 06:15 Clear 16 -9.1 13 -10.7 88 88 NW 6 9 30.61 1036 10 16.0934 0 0
6:35 am 06:35 Clear 15 -9.2 13 -10.6 90 90 NW 5 7 30.6 1036 10 16.0934 0 0
6:55 am 06:55 Clear 14 -10.1 11 -11.5 90 90 NW 6 9 30.61 1036 10 16.0934 0 0
7:15 am 07:15 Clear 14 -9.9 12 -11.2 90 90 NW 7 11 30.61 1036 10 16.0934 0 0
7:35 am 07:35 Sunny 16 -8.8 14 -10.2 90 90 NW 8 13 30.6 1036 10 16.0934 0 0
7:55 am 07:55 Sunny 17 -8.2 14 -10.1 86 86 NW 8 13 30.6 1036 10 16.0934 0 0
8:15 am 08:15 Sunny 19 -7.1 15 -9.3 85 85 NW 6 9 30.59 1036 10 16.0934 0 0
8:35 am 08:35 Sunny 21 -6.1 17 -8.5 83 83 NNW 7 11 30.58 1035 10 16.0934 0 0
8:55 am 08:55 Sunny 23 -5.1 19 -7.5 83 83 NNW 6 9 30.57 1035 10 16.0934 0 0
9:15 am 09:15 Sunny 25 -4 20 -6.8 81 81 NNW 6 9 30.56 1035 10 16.0934 0 0
9:35 am 09:35 Sunny 27 -3 21 -6.2 79 79 NNW 7 11 30.55 1034 10 16.0934 0 0
9:55 am 09:55 Sunny 28 -2.3 21 -6 76 76 NNW 8 13 30.54 1034 10 16.0934 0 0
10:15 am 10:15 Sunny 29 -1.8 22 -5.5 76 76 N 7 11 30.52 1034 10 16.0934 0 0
10:35 am 10:35 Sunny 29 -1.6 21 -6 72 72 NNW 6 9 30.51 1033 10 16.0934 0 0
10:55 am 10:55 Sunny 30 -1.1 21 -6 70 70 Calm 30.51 1033 10 16.0934 0 0
11:15 am 11:15 Sunny 30 -0.9 20 -6.6 66 66 NW 7 11 30.5 1033 10 16.0934 0 0
11:35 am 11:35 Sunny 31 -0.6 20 -6.5 65 65 NW 7 11 30.5 1033 10 16.0934 0 0
11:55 am 11:55 Sunny 32 -0.2 20 -6.4 63 63 W 7 11 30.49 1032 10 16.0934 0 0
12:15 pm 12:15 Sunny 32 0 20 -6.7 61 61 W 8 13 30.48 1032 10 16.0934 0 0
12:35 pm 12:35 Partly Cloudy 32 0 21 -6.3 63 63 W 8 13 30.48 1032 10 16.0934 0 0
12:55 pm 12:55 Partly Cloudy 33 0.5 23 -5.2 66 66 WSW 8 13 30.45 1031 10 16.0934 0 0
1:10 pm 13:10 Mostly Cloudy 32 0.1 21 -6.1 63 63 W 9 15 30.46 1031 10 16.0934 0 0
1:35 pm 13:35 Partly Cloudy 32 0.1 21 -6.1 63 63 WSW 10 17 30.43 1031 10 16.0934 0 0
1:55 pm 13:55 Sunny 32 0.1 20 -6.4 62 62 W 13 20 30.43 1031 10 16.0934 0 0
2:15 pm 14:15 Sunny 32 0.1 20 -6.5 62 62 W 15 24 30.42 1030 10 16.0934 0 0
2:35 pm 14:35 Sunny 32 0.1 20 -6.4 62 62 W 12 19 30.41 1030 10 16.0934 0 0
2:55 pm 14:55 Sunny 32 0.1 20 -6.8 60 60 W 12 19 30.4 1030 10 16.0934 0 0
3:15 pm 15:15 Sunny 33 0.4 19 -7.1 58 58 WSW 14 22 30.39 1029 10 16.0934 0 0
3:35 pm 15:35 Sunny 32 0.1 20 -6.9 60 60 W 12 19 30.38 1029 10 16.0934 0 0
3:55 pm 15:55 Sunny 32 0 19 -7.1 59 59 WSW 12 19 30.38 1029 10 16.0934 0 0
4:15 pm 16:15 Sunny 32 0.2 20 -6.6 61 61 WSW 8 13 30.36 1028 10 16.0934 0 0
4:35 pm 16:35 Sunny 32 0 19 -7 60 60 WSW 12 19 30.35 1028 10 16.0934 0 0
4:55 pm 16:55 Sunny 32 -0.2 19 -7 61 61 WSW 12 19 30.34 1027 10 16.0934 0 0
5:15 pm 17:15 Sunny 31 -0.7 19 -7.1 62 62 WSW 12 19 30.35 1028 10 16.0934 0 0
5:35 pm 17:35 Sunny 30 -1 20 -6.8 65 65 SW 9 15 30.35 1028 10 16.0934 0 0
5:55 pm 17:55 Sunny 30 -1.3 20 -6.6 68 68 SW 7 11 30.35 1028 10 16.0934 0 0
6:15 pm 18:15 Sunny 29 -1.6 21 -6.1 72 72 SW 6 9 30.34 1027 10 16.0934 0 0
6:35 pm 18:35 Clear 28 -2.1 22 -5.8 76 76 SW 7 11 30.35 1028 10 16.0934 0 0
6:55 pm 18:55 Clear 28 -2.3 22 -5.6 78 78 SSW 7 11 30.34 1027 10 16.0934 0 0
7:15 pm 19:15 Clear 27 -2.6 22 -5.6 80 80 SSW 8 13 30.34 1027 10 16.0934 0 0
7:35 pm 19:35 Clear 26 -3.2 22 -5.7 83 83 SSW 8 13 30.33 1027 10 16.0934 0 0
7:55 pm 19:55 Clear 26 -3.5 22 -5.8 84 84 SSW 8 13 30.33 1027 10 16.0934 0 0
8:15 pm 20:15 Clear 26 -3.2 22 -5.5 84 84 SSW 9 15 30.32 1027 10 16.0934 0 0
8:35 pm 20:35 Clear 27 -2.7 22 -5.5 81 81 SSW 13 20 30.29 1026 10 16.0934 0 0
8:55 pm 20:55 Partly Cloudy 27 -2.7 22 -5.5 81 81 SSW 9 15 30.29 1026 10 16.0934 0 0
9:15 pm 21:15 Clear 28 -2.4 22 -5.5 80 80 SSW 12 19 30.29 1026 10 16.0934 0 0
9:35 pm 21:35 Partly Cloudy 28 -2.3 22 -5.5 79 79 SSW 9 15 30.28 1025 10 16.0934 0 0
9:55 pm 21:55 Mostly Cloudy 28 -2.2 22 -5.5 78 78 SW 10 17 30.28 1025 10 16.0934 0 0
10:15 pm 22:15 Cloudy 29 -1.7 22 -5.4 76 76 SW 9 15 30.27 1025 10 16.0934 0 0
10:35 pm 22:35 Cloudy 29 -1.6 22 -5.5 75 75 SW 10 17 30.26 1025 10 16.0934 0 0
10:55 pm 22:55 Cloudy 29 -1.7 22 -5.5 76 76 SW 7 11 30.26 1025 10 16.0934 0 0
11:15 pm 23:15 Partly Cloudy 28 -2.1 22 -5.6 77 77 SW 7 11 30.26 1025 10 16.0934 0 0
11:35 pm 23:35 Clear 28 -2.5 22 -5.8 78 78 SW 6 9 30.25 1024 10 16.0934 0 0
11:55 pm 23:55 Clear 26 -3.2 21 -6.1 81 81 SW 6 9 30.25 1024 10 16.0934 0 0

Powered by AerisWeather